sat.trackr.live / text

‹ back to catalog

KUIPER-00542

NORAD 69611 · 2026-140V

PAYLOAD ACTIVE UNKNOWN

§ Identity

Operator
Country
US
Launch date
2026-06-17
Launch site
FRGUI
Launch vehicle
Mass (kg)
RCS (m²)

External: N2YO · Heavens-Above · Gunter

§ Orbital elements

Epoch: 2026-09-20T04:00:03.000096Z

Period
94.56 min
Inclination
51.8864°
Eccentricity
0.0008024
Mean motion
15.22876303 rev/d
Perigee alt
491.7 km
Apogee alt
502.7 km
Semi-major
6,875.3 km
B*
-1.0956e-2
RAAN
299.4407°
Arg perigee
162.3714°
Mean anomaly
240.8748°
Rev number
456

§ Raw data

KUIPER-005421 69611U 26140V   26263.16670139 -.00252116  00000+0 -10956-1 0  99982 69611  51.8864 299.4407 0008024 162.3714 240.8748 15.22876303  4565

JSON: /api/v1/satellites/69611 · /tle

For live sub-satellite position, see the globe view (requires WebGL).

§ Visibility from observer

Set your observer location to see the next 7 days of passes ≥ 10°. The values pass through the URL so the page stays shareable.

No JS? Fill the form by hand. The geolocation button needs JavaScript.